IRIDIUM 2

Last updated on Wed Nov 29 2017 00:19:03 GMT+0000 (Coordinated Universal Time)

1 25527U 98066A 17332.46582874 .00001675 00000-0 82793-4 0 9992 2 25527 85.5285 295.2370 0008083 191.4588 168.6469 15.17026112 42775
UTC large
Height (km)
Speed (km/s)
/
Latitude / Longitude
Inclination (degrees)
Orbital Period (minutes)
Azimuth
Elevation
Range (km)
Doppler Factor

Next 0 passes for location: London (51.5072 / 0.1276)

Sorry there are no passes over London.